INTELSAT 37E (IS-37E)

Last updated on Mon Sep 15 2025 00:02:49 GMT+0000 (Coordinated Universal Time)

1 42950U 17059A 25257.22503662 .00000000 00000+0 00000+0 0 9997 2 42950 0.0228 144.2497 0002923 43.9913 228.2172 1.00271015 29293
UTC large
Height (km)
Speed (km/s)
/
Latitude / Longitude
Inclination (degrees)
Orbital Period (minutes)
Azimuth
Elevation
Range (km)
Doppler Factor

Next 0 passes for location: London (51.5072 / 0.1276)

Sorry there are no passes over London.